Weather History for KTTF - August, 2012

Change the Weather History Date:

Thursday, August 23, 2012

  Actual Average Record
Temperature  
Mean Temperature 65 °F -  
Max Temperature 80 °F 79 °F 96 °F (1936)
Min Temperature 50 °F 60 °F 46 °F (1952)
Growing Degree Days 15 (Base 50)    
Moisture  
Dew Point 54 °F    
Average Humidity 71    
Maximum Humidity 100    
Minimum Humidity 28    
Precipitation  
Precipitation 0.00 in - - ()
Sea Level Pressure  
Sea Level Pressure 30.11 in    
Wind  
Wind Speed 1 mph (SSE)    
Max Wind Speed 12 mph    
Max Gust Speed -    
Visibility 10 miles    
Events      
Averages and records for this station are not official NWS values.
T = Trace of Precipitation, MM = Missing Value Source: NWS Daily Summary

Daily Weather History Graph

Daily Weather History Graph

Search for Another Location

Airport or City:

Trip Planner

Search our weather history database for the weather conditions in past years. The results will help you decide how hot, cold, wet, or windy it might be!

Date:

Astronomy

Aug. 23, 2012 Rise Set
Actual Time 6:50 AM EDT 8:21 PM EDT
Civil Twilight 6:21 AM EDT 8:50 PM EDT
Nautical Twilight 5:45 AM EDT 9:25 PM EDT
Astronomical Twilight 5:08 AM EDT 10:02 PM EDT
Moon 1:44 PM EDT (8/23) 11:40 PM EDT (8/23)
Length of Visible Light 14h 29m
Length of Day
13h 30m
Waxing Crescent, 40% of the Moon is Illuminated
Aug 23
Waxing Crescent
Aug 24
First Quarter
Aug 31
Full
Sep 8
Last Quarter
Sep 15
New

Hourly Weather History & Observations

Time (EDT) Temp. Dew Point Humidity Pressure Visibility Wind Dir Wind Speed Gust Speed Precip Events Conditions
12:35 AM 55.4 °F 53.6 °F 94% 30.10 in 10.0 mi Calm Calm - N/A   Clear
12:55 AM 55.4 °F 53.6 °F 94% 30.11 in 10.0 mi Calm Calm - N/A   Clear
1:15 AM 55.4 °F 53.6 °F 94% 30.11 in 10.0 mi Calm Calm - N/A   Clear
1:30 AM 55.4 °F 53.6 °F 94% 30.11 in 10.0 mi Calm Calm - N/A   Clear
1:50 AM 55.4 °F 53.6 °F 94% 30.11 in 10.0 mi Calm Calm - N/A   Clear
2:10 AM 53.6 °F 53.6 °F 100% 30.11 in 10.0 mi Calm Calm - N/A   Clear
2:30 AM 53.6 °F 53.6 °F 100% 30.11 in 10.0 mi Calm Calm - N/A   Clear
2:51 AM 53.6 °F 53.6 °F 100% 30.11 in 10.0 mi Calm Calm - N/A   Clear
3:11 AM 53.6 °F 53.6 °F 100% 30.11 in 10.0 mi Calm Calm - N/A   Clear
3:31 AM 53.6 °F 53.6 °F 100% 30.11 in 10.0 mi Calm Calm - N/A   Clear
3:51 AM 51.8 °F 51.8 °F 100% 30.11 in 10.0 mi Calm Calm - N/A   Clear
4:11 AM 51.8 °F 51.8 °F 100% 30.11 in 10.0 mi Calm Calm - N/A   Clear
4:31 AM 53.6 °F 53.6 °F 100% 30.11 in 10.0 mi Calm Calm - N/A   Clear
4:51 AM 51.8 °F 51.8 °F 100% 30.11 in 10.0 mi Calm Calm - N/A   Clear
5:11 AM 51.8 °F 51.8 °F 100% 30.11 in 10.0 mi Calm Calm - N/A   Clear
5:31 AM 51.8 °F 51.8 °F 100% 30.11 in 10.0 mi Calm Calm - N/A   Clear
5:52 AM 51.8 °F 51.8 °F 100% 30.11 in 10.0 mi Calm Calm - N/A   Clear
6:12 AM 50.0 °F 50.0 °F 100% 30.12 in 10.0 mi Calm Calm - N/A   Clear
6:32 AM 51.8 °F 51.8 °F 100% 30.13 in 10.0 mi Calm Calm - N/A   Clear
6:52 AM 50.0 °F 50.0 °F 100% 30.13 in 10.0 mi Calm Calm - N/A   Clear
7:12 AM 50.0 °F 50.0 °F 100% 30.13 in 10.0 mi Calm Calm - N/A   Clear
7:32 AM 51.8 °F 51.8 °F 100% 30.14 in 10.0 mi Calm Calm - N/A   Clear
7:52 AM 53.6 °F 53.6 °F 100% 30.14 in 10.0 mi Calm Calm - N/A   Clear
8:12 AM 55.4 °F 55.4 °F 100% 30.14 in 10.0 mi Calm Calm - N/A   Clear
8:32 AM 59.0 °F 57.2 °F 94% 30.14 in 10.0 mi Calm Calm - N/A   Clear
8:53 AM 62.6 °F 57.2 °F 82% 30.14 in 10.0 mi Calm Calm - N/A   Clear
9:13 AM 64.4 °F 55.4 °F 73% 30.15 in 10.0 mi Calm Calm - N/A   Clear
9:33 AM 66.2 °F 53.6 °F 64% 30.15 in 10.0 mi Calm Calm - N/A   Clear
9:53 AM 68.0 °F 53.6 °F 60% 30.15 in 10.0 mi Calm Calm - N/A   Clear
10:13 AM 69.8 °F 55.4 °F 60% 30.15 in 10.0 mi Calm Calm - N/A   Clear
10:33 AM 71.6 °F 55.4 °F 57% 30.15 in 10.0 mi Calm Calm - N/A   Clear
10:53 AM 73.4 °F 53.6 °F 50% 30.15 in 10.0 mi Calm Calm - N/A   Clear
11:13 AM 73.4 °F 51.8 °F 47% 30.15 in 10.0 mi Calm Calm - N/A   Clear
11:33 AM 75.2 °F 51.8 °F 44% 30.15 in 10.0 mi Calm Calm - N/A   Clear
11:53 AM 75.2 °F 48.2 °F 38% 30.15 in 10.0 mi Calm Calm - N/A   Clear
12:13 PM 77.0 °F 46.4 °F 34% 30.15 in 10.0 mi West 4.6 mph - N/A   Clear
12:34 PM 77.0 °F 46.4 °F 34% 30.15 in 10.0 mi WSW 5.8 mph - N/A   Clear
12:54 PM 77.0 °F 44.6 °F 32% 30.14 in 10.0 mi Calm Calm - N/A   Clear
1:14 PM 78.8 °F 44.6 °F 30% 30.14 in 10.0 mi West 4.6 mph - N/A   Clear
1:34 PM 78.8 °F 44.6 °F 30% 30.13 in 10.0 mi Calm Calm - N/A   Clear
1:54 PM 80.6 °F 44.6 °F 28% 30.13 in 10.0 mi West 4.6 mph - N/A   Clear
2:14 PM 78.8 °F 42.8 °F 28% 30.13 in 10.0 mi Calm Calm - N/A   Clear
2:34 PM 78.8 °F 42.8 °F 28% 30.12 in 10.0 mi Calm Calm - N/A   Clear
2:54 PM 78.8 °F 50.0 °F 36% 30.11 in 10.0 mi SE 4.6 mph - N/A   Clear
3:14 PM 78.8 °F 51.8 °F 39% 30.11 in 10.0 mi SE 8.1 mph - N/A   Clear
3:35 PM 78.8 °F 51.8 °F 39% 30.10 in 10.0 mi SSE 11.5 mph - N/A   Clear
3:55 PM 78.8 °F 51.8 °F 39% 30.10 in 10.0 mi SSE 9.2 mph - N/A   Clear
4:15 PM 78.8 °F 51.8 °F 39% 30.09 in 10.0 mi SSE 9.2 mph - N/A   Clear
4:35 PM 78.8 °F 50.0 °F 36% 30.09 in 10.0 mi SSE 8.1 mph - N/A   Clear
4:55 PM 78.8 °F 51.8 °F 39% 30.09 in 10.0 mi SSE 8.1 mph - N/A   Clear
5:15 PM 77.0 °F 51.8 °F 41% 30.09 in 10.0 mi SE 8.1 mph - N/A   Clear
5:30 PM 77.0 °F 53.6 °F 44% 30.09 in 10.0 mi SE 9.2 mph - N/A   Clear
5:50 PM 77.0 °F 51.8 °F 41% 30.09 in 10.0 mi SE 6.9 mph - N/A   Clear
6:10 PM 75.2 °F 53.6 °F 47% 30.09 in 10.0 mi SE 6.9 mph - N/A   Clear
6:31 PM 75.2 °F 55.4 °F 50% 30.08 in 10.0 mi SSE 6.9 mph - N/A   Clear
6:51 PM 75.2 °F 55.4 °F 50% 30.08 in 10.0 mi SSE 6.9 mph - N/A   Clear
7:11 PM 73.4 °F 55.4 °F 53% 30.08 in 10.0 mi SSE 8.1 mph - N/A   Clear
7:31 PM 73.4 °F 57.2 °F 57% 30.08 in 10.0 mi SSE 8.1 mph - N/A   Clear
7:51 PM 71.6 °F 59.0 °F 64% 30.08 in 10.0 mi SSE 5.8 mph - N/A   Clear
8:11 PM 69.8 °F 59.0 °F 68% 30.08 in 10.0 mi SSE 4.6 mph - N/A   Clear
8:31 PM 69.8 °F 60.8 °F 73% 30.09 in 10.0 mi SSE 3.5 mph - N/A   Clear
8:51 PM 68.0 °F 60.8 °F 78% 30.09 in 10.0 mi SSE 3.5 mph - N/A   Clear
9:11 PM 66.2 °F 62.6 °F 88% 30.10 in 10.0 mi Calm Calm - N/A   Clear
9:32 PM 66.2 °F 62.6 °F 88% 30.10 in 10.0 mi Calm Calm - N/A   Clear
9:52 PM 66.2 °F 62.6 °F 88% 30.11 in 10.0 mi Calm Calm - N/A   Clear
10:12 PM 62.6 °F 62.6 °F 100% 30.11 in 10.0 mi Calm Calm - N/A   Clear
10:32 PM 64.4 °F 62.6 °F 94% 30.11 in 10.0 mi Calm Calm - N/A   Clear
10:52 PM 60.8 °F 60.8 °F 100% 30.11 in 7.0 mi Calm Calm - N/A   Clear
11:12 PM 60.8 °F 60.8 °F 100% 30.10 in 10.0 mi Calm Calm - N/A   Clear
11:32 PM 60.8 °F 60.8 °F 100% 30.10 in 10.0 mi Calm Calm - N/A   Clear
11:52 PM 60.8 °F 60.8 °F 100% 30.10 in 10.0 mi Calm Calm - N/A   Clear